Flag for Germany Weather past 2 weeks in Neustadt am Rübenberge, Lower Saxony, Germany

Now
34 °F

Chilly.


Feels Like: 30 °F
Forecast: 36 / 41 °F
Wind: 5 mph from West

Location: Wunstorf Airport

Current Time: Jan 25, 2015 at 11:25:54 AM

Latest Report: Jan 25, 2015 at 10:20 AM


Visibility: 4 mi

Pressure: 30.33 "Hg

Humidity: 100%

Dew point: 34 °F

Location of Neustadt am RübenbergeLocation

Historic Weather in Neustadt am Rübenberge — Graph

°F

Neustadt am Rübenberge temperature yesterday

Maximum temperature yesterday: 34 °F (at 4:20 PM)
Minimum temperature yesterday: 23 °F (at 3:20 AM)
Average temperature yesterday: 30 °F

Past Weeks' High & Low Weather Summary

 TemperatureHumidityPressure
High54 °F (Jan 10, 9:20 AM)100% (Jan 13, 5:20 PM)30.30 "Hg (Jan 13, 5:20 PM)
Low23 °F (Jan 21, 6:20 AM)61% (Jan 10, 7:20 PM)29.42 "Hg (Jan 15, 5:20 PM)
Average37 °F83%29.88 "Hg
* Reported Jan 10 9:20 AM — Jan 25 9:20 AM, Neustadt am Rübenberge, Weather by CustomWeather, © 2014

Note: Actual official high and low records may vary slightly from our data, if they occured in-between our weather recording intervals... More about our weather records

Advertising

Neustadt am Rübenberge weather history for previous 24 hours

 ConditionsComfort  
Time TempWeatherWind HumidityBarometerVisibility
9:20 AM
Jan 25
34 °FChilly.7 mph93%30.30 "Hg4 mi
8:20 AM34 °FChilly.8 mph93%30.30 "Hg1 mi
7:20 AM34 °FChilly.9 mph93%30.27 "Hg4 mi
6:20 AM32 °FChilly.9 mph93%30.27 "Hg6 mi
5:20 AM30 °FChilly.7 mph93%30.27 "Hg5 mi
4:20 AM30 °FChilly.7 mph93%30.24 "Hg5 mi
3:20 AM28 °FChilly.8 mph93%30.24 "Hg5 mi
2:20 AM30 °FChilly.8 mph93%30.24 "Hg6 mi
1:20 AM32 °FChilly.9 mph93%30.24 "Hg5 mi
12:20 AM32 °FChilly.10 mph93%30.21 "Hg5 mi
11:20 PM
Jan 24
32 °FChilly.9 mph93%30.21 "Hg5 mi
10:20 PM32 °FChilly.8 mph93%30.18 "Hg4 mi
9:20 PM32 °FChilly.9 mph100%30.18 "Hg3 mi
8:20 PM34 °FChilly.8 mph93%30.15 "Hg3 mi
7:20 PM34 °FChilly.12 mph100%30.12 "Hg3 mi
6:20 PM34 °FChilly.12 mph100%30.09 "Hg2 mi
5:20 PM34 °FChilly.8 mph93%30.07 "Hg2 mi
4:20 PM34 °FChilly.8 mph93%30.04 "Hg3 mi
3:20 PM32 °FChilly.10 mph100%30.04 "Hg1 mi
2:20 PM32 °FChilly.12 mph93%30.01 "Hg1 mi
1:20 PM32 °FChilly.12 mph93%30.01 "Hg1 mi
12:20 PM32 °FChilly.8 mph93%30.01 "Hg1 mi
11:20 AM32 °FChilly.7 mph80%30.04 "HgN/A
Weather by CustomWeather, © 2014

See weather overviewHow to use our weather pages